Regional Weather Roundup
Issued by NWS

Home | Current Version | Previous Version | Text Only | Print | Product List | Glossary Off
Versions: 1 2 3 4 5 6 7 8 9 10 11 12 13 14 15 16 17 18 19 20 21 22 23 24 25 26 27 28 29 30 31 32 33 34 35 36 37 38 39 40 41 42 43 44 45 46 47 48 49 50

764
ASUS45 KPSR 161410
RWRAZ

ARIZONA HOURLY REGIONAL WEATHER ROUNDUP
NATIONAL WEATHER SERVICE PHOENIX AZ
700 AM MST MON OCT 16 2017

NOTE: FAIR INDICATES FEW OR NO CLOUDS BELOW 12,000 FEET WITH NO
SIGNIFICANT WEATHER AND/OR OBSTRUCTIONS TO VISIBILITY.

AZZ001>003-036-161500-
NORTHWEST ARIZONA

CITY           SKY/WX    TMP DP  RH WIND       PRES   REMARKS
KINGMAN        PTCLDY    43  14  31 SE5       30.28R
$$

AZZ004>008-015-016-018-161500-
NORTH CENTRAL ARIZONA

CITY           SKY/WX    TMP DP  RH WIND       PRES   REMARKS
GRAND CANYON   PTCLDY    26  -1  31 NE3       30.47R
WILLIAMS       PTCLDY    46   5  18 SE12      30.45S
PRESCOTT       PTCLDY    43  18  36 SW3       30.37R
FLAGSTAFF      PTCLDY    29   6  38 CALM      30.48S
PAYSON           N/A     55  18  22 CALM      30.40R
PAGE           MOCLDY    43   8  23 CALM      30.43R
$$

AZZ009>014-017-161500-
NORTHEAST ARIZONA

CITY           SKY/WX    TMP DP  RH WIND       PRES   REMARKS
WINSLOW        CLOUDY    34  -1  22 CALM      30.45R
SAINT JOHNS    CLEAR     34  12  40 CALM      30.45R
WINDOW ROCK    CLEAR     24  -1  33 CALM      30.52R
SHOW LOW       PTCLDY    37  12  35 S3        30.47S
$$

AZZ540-542>544-546-548-161500-
GREATER PHOENIX AREA

CITY           SKY/WX    TMP DP  RH WIND       PRES   REMARKS
PHOENIX        CLEAR     70  34  26 E5        30.09R
BUCKEYE        CLEAR     59  14  17 N6        30.10R
GLENDALE       CLEAR     66  28  24 CALM      30.12R
LUKE AFB       CLEAR     65  27  24 N7        30.09R
DEER VALLEY    CLEAR     70  22  16 NE5       30.12R
SCOTTSDALE     CLEAR     71  30  21 CALM      30.13R
MESA-FALCON    CLEAR     73  30  20 NE5       30.13R
MESA-GATEWAY   CLEAR     68  32  26 CALM      30.12S
CHANDLER       CLEAR     70  32  24 N5        30.11R
$$

AZZ539-553-161500-
SOUTHWEST MARICOPA COUNTY AND PINAL COUNTY

CITY           SKY/WX    TMP DP  RH WIND       PRES   REMARKS
CASA GRANDE    NOT AVBL
GILA BEND      PTCLDY    66  14  13 SE3       30.05
$$

AZZ503-504-507>509-161500-
SOUTHEAST ARIZONA

CITY           SKY/WX    TMP DP  RH WIND       PRES   REMARKS
TUCSON         CLEAR     71  31  22 SE18      30.20R
DAVIS-MONTHAN  CLEAR     70  30  23 SE6       30.17R
RYAN FIELD     CLEAR     72  32  23 MISG      30.18R
NOGALES        CLEAR     62  37  39 NE6       30.26R
SIERRA VISTA   CLEAR     58  29  33 CALM      30.35R
DOUGLAS        CLEAR     54  31  41 NE7       30.34R
SAFFORD        CLEAR     57  30  35 E8        30.35R
$$

AZZ532-161500-
SOUTHWEST ARIZONA

CITY           SKY/WX    TMP DP  RH WIND       PRES   REMARKS
YUMA           CLEAR     71  16  12 N7        30.05R
$$

CAZ041-043-047-048-061-525>527-560>570-161500-
SOUTHERN CALIFORNIA

CITY           SKY/WX    TMP DP  RH WIND       PRES   REMARKS
DOWNTOWN L.A.  PTCLDY    66  33  29 CALM      30.05R
L.A. AIRPORT   PTCLDY    70  30  22 CALM      30.05S
SAN DIEGO      CLEAR     66  43  43 CALM      30.05R
BURBANK        PTCLDY    65  27  23 W5        30.07S
ONTARIO        PTCLDY    64  32  30 CALM      30.09R
RIVERSIDE      PTCLDY    61  29  29 E5        30.09S
PALM SPRINGS   CLEAR     68  19  15 NW6       30.10R
EL CENTRO NAS  PTCLDY    62  11  13 W9        30.06S
IMPERIAL       CLEAR     60  28  29 NW5       30.04S
BLYTHE         PTCLDY    63  10  12 W6        30.10R
NEEDLES        CLEAR     67  10  11 NW5       30.15R
$$

NVZ020-UTZ003-161500-
SOUTHERN NEVADA-UTAH

CITY           SKY/WX    TMP DP  RH WIND       PRES   REMARKS
LAS VEGAS      PTCLDY    56  15  20 SW3       30.25R
SALT LAKE CITY MOCLDY    37  27  67 NE5       30.41R WCI  33
$$

NMZ009-TXZ055-161500-
NEW MEXICO-WEST TEXAS

CITY           SKY/WX    TMP DP  RH WIND       PRES   REMARKS
ALBUQUERQUE    CLOUDY    43  25  49 N9        30.49R
EL PASO        PTCLDY    57  32  38 N6        30.43R
$$


........................KEY........................
SKY/WX - SKY CONDITION/WEATHER
TMP    - TEMPERATURE IN FAHRENHEIT
DP     - DEW POINT IN FAHRENHEIT
RH     - RELATIVE HUMIDITY IN PERCENT
WIND   - DIRECTION AND SPEED IN MILES PER HOUR (MPH)
VRB    - VARIABLE WIND DIRECTION
PRES   - MEAN SEA LEVEL PRESSURE IN INCHES OF MERCURY
         F - FALLING PRESSURE   R - RISING PRESSURE
         S - STEADY PRESSURE
VSB    - VISIBILITY IN MILES
HX     - HEAT INDEX IN FAHRENHEIT
WCI    - WIND CHILL INDEX IN FAHRENHEIT
TC     - TEMPERATURE IN CELSIUS WHICH IS ALSO KNOWN AS
         TEMPERATURE IN CENTIGRADE
AFB    - AIR FORCE BASE
         LUKE AFB IS LUKE AIR FORCE BASE
         DAVIS-MONTHAN IS DAVIS-MONTHAN AIR FORCE BASE
NAS    - NAVAL AIR STATION
         EL CENTRO NAS IS EL CENTRO NAVAL AIR STATION
N/A    - NOT AVAILABLE





USA.gov is the U.S. government's official web portal to all federal, state and local government web resources and services.